This is the latest recevied weather packets stored in our database for station/object KN4MGS. If no packets are shown the sender has not sent any weather packets the latest 10 day(s).
| Time | Temp. | Humidity | Pressure | Rain* | Wind** | Luminosity | Snow |
|---|---|---|---|---|---|---|---|
| 1777740555 | 15° C | 54% | 1017.4 hPa | 0 mm | - | 314 W/m² | - |
| 1777740251 | 15° C | 57% | 1017.3 hPa | 0 mm | - | 366 W/m² | - |
| 1777739948 | 15.56° C | 56% | 1017.4 hPa | 0 mm | - | 444 W/m² | - |
| 1777739644 | 15° C | 58% | 1017.5 hPa | 0 mm | - | 458 W/m² | - |
| 1777739342 | 15° C | 60% | 1017.6 hPa | 0 mm | - | 372 W/m² | - |
| 1777739038 | 14.44° C | 58% | 1017.7 hPa | 0 mm | - | 384 W/m² | - |
| 1777738735 | 14.44° C | 60% | 1017.5 hPa | 0 mm | - | 343 W/m² | - |
| 1777738431 | 15° C | 65% | 1017.7 hPa | 0 mm | - | 271 W/m² | - |
| 1777738129 | 15° C | 64% | 1017.7 hPa | 0 mm | - | 286 W/m² | - |
| 1777737828 | 15° C | 64% | 1017.9 hPa | 0 mm | - | 254 W/m² | - |
| 1777737526 | 15° C | 67% | 1018 hPa | 0 mm | - | 287 W/m² | - |
| 1777737224 | 15° C | 69% | 1017.8 hPa | 0 mm | - | 311 W/m² | - |
| 1777736920 | 14.44° C | 69% | 1017.8 hPa | 0 mm | - | 295 W/m² | - |
| 1777736316 | 13.89° C | 69% | 1017.7 hPa | 0 mm | - | 265 W/m² | - |
| 1777736013 | 13.89° C | 71% | 1017.8 hPa | 0 mm | - | 191 W/m² | - |
| 1777735711 | 13.33° C | 72% | 1017.9 hPa | 0 mm | - | 180 W/m² | - |
| 1777735409 | 13.33° C | 73% | 1018 hPa | 0 mm | - | 143 W/m² | - |
| 1777735106 | 13.33° C | 72% | 1018.1 hPa | 0 mm | - | 114 W/m² | - |
| 1777734803 | 13.33° C | 73% | 1018.1 hPa | 0 mm | - | 100 W/m² | - |
| 1777734500 | 13.33° C | 75% | 1018.4 hPa | 0 mm | - | 88 W/m² | - |
| 1777734196 | 13.33° C | 77% | 1018.4 hPa | 0 mm | - | 97 W/m² | - |
| 1777733893 | 13.33° C | 76% | 1018.4 hPa | 0 mm | - | 77 W/m² | - |
| 1777733590 | 12.78° C | 74% | 1017.9 hPa | 0 mm | - | 65 W/m² | - |
| 1777733286 | 13.33° C | 79% | 1017.9 hPa | 0 mm | - | 68 W/m² | - |
| 1777732983 | 13.33° C | 77% | 1018.1 hPa | 0 mm | - | 56 W/m² | - |
* Rain latest hour (hover to see other rain measurements)
** Current wind speed in m/s (hover to see current wind gust speed)